Meacham, OR

5:17 PM PST on November 24, 2017 (GMT -0800)
Meacham

Weather History for KMEH - June, 2013

Change the Weather History Date:

Friday, June 28, 2013

  Actual Average Record
Temperature  
Mean Temperature 65 °F -  
Max Temperature 84 °F 70 °F 100 °F (2015)
Min Temperature 48 °F 37 °F 30 °F (1999)
Growing Degree Days 15 (Base 50)    
Moisture  
Dew Point 55 °F    
Average Humidity 66    
Maximum Humidity 93    
Minimum Humidity 39    
Precipitation  
Precipitation 0.00 in - - ()
Sea Level Pressure  
Sea Level Pressure 30.17 in    
Wind  
Wind Speed 1 mph (NNE)    
Max Wind Speed 6 mph    
Max Gust Speed -    
Visibility 10 miles    
Events      
Averages and records for this station are not official NWS values.
T = Trace of Precipitation, MM = Missing Value Source: NWS Daily Summary

Daily Weather History Graph

Daily Weather History Graph

Search for Another Location

Airport or City:

Trip Planner

Search our weather history database for the weather conditions in past years. The results will help you decide how hot, cold, wet, or windy it might be!

Date:

Astronomy

Jun. 28, 2013 Rise Set
Actual Time 5:07 AM PDT 8:46 PM PDT
Civil Twilight 4:29 AM PDT 9:24 PM PDT
Nautical Twilight 3:38 AM PDT 10:14 PM PDT
Astronomical Twilight 2:30 AM PDT 11:22 PM PDT
Moon 11:56 PM PDT (6/28) 11:39 AM PDT (6/28)
Length of Visible Light 16h 54m
Length of Day
15h 39m
Waning Gibbous, 65% of the Moon is Illuminated
Jun 28
Waning Gibbous
Jun 29
Last Quarter
Jul 8
New
Jul 15
First Quarter
Jul 22
Full

Hourly Weather History & Observations

Time (PDT) Temp. Heat Index Dew Point Humidity Pressure Visibility Wind Dir Wind Speed Gust Speed Precip Events Conditions
12:56 AM 54.0 °F - 51.1 °F 90% 30.23 in 10.0 mi Calm Calm - N/A   Clear
1:56 AM 52.0 °F - 50.0 °F 93% 30.22 in 10.0 mi Calm Calm - N/A   Clear
2:56 AM 51.1 °F - 48.9 °F 92% 30.22 in 10.0 mi Calm Calm - N/A   Clear
3:56 AM 50.0 °F - 48.0 °F 93% 30.22 in 10.0 mi Calm Calm - N/A   Clear
4:56 AM 48.9 °F - 46.9 °F 93% 30.23 in 10.0 mi Calm Calm - N/A   Clear
5:56 AM 50.0 °F - 46.9 °F 89% 30.24 in 10.0 mi Calm Calm - N/A   Clear
6:56 AM 55.9 °F - 51.1 °F 84% 30.22 in 10.0 mi Calm Calm - N/A   Clear
7:56 AM 66.0 °F - 55.0 °F 68% 30.22 in 10.0 mi Calm Calm - N/A   Clear
8:56 AM 71.1 °F - 55.9 °F 59% 30.21 in 10.0 mi Calm Calm - N/A   Clear
9:56 AM 75.0 °F - 57.0 °F 53% 30.20 in 10.0 mi Calm Calm - N/A   Clear
10:56 AM 78.1 °F - 57.9 °F 50% 30.19 in 10.0 mi NNE 3.5 mph - N/A   Clear
11:56 AM 81.0 °F 81.3 °F 59.0 °F 47% 30.18 in 10.0 mi Calm Calm - N/A   Clear
12:56 PM 82.0 °F 82.4 °F 60.1 °F 47% 30.18 in 10.0 mi Variable 4.6 mph - N/A   Clear
1:56 PM 82.0 °F 82.4 °F 60.1 °F 47% 30.17 in 10.0 mi Variable 4.6 mph - N/A   Clear
2:56 PM 82.9 °F 82.4 °F 57.0 °F 41% 30.16 in 10.0 mi Variable 3.5 mph - N/A   Clear
3:56 PM 82.9 °F 82.1 °F 55.9 °F 39% 30.14 in 10.0 mi Variable 3.5 mph - N/A   Clear
4:56 PM 82.0 °F 81.4 °F 55.0 °F 39% 30.13 in 10.0 mi Variable 5.8 mph - N/A   Clear
5:56 PM 82.0 °F 82.0 °F 57.9 °F 44% 30.12 in 10.0 mi Variable 3.5 mph - N/A   Clear
6:56 PM 80.1 °F 80.6 °F 57.9 °F 47% 30.10 in 10.0 mi Calm Calm - N/A   Clear
7:56 PM 77.0 °F - 59.0 °F 54% 30.09 in 10.0 mi Calm Calm - N/A   Clear
8:56 PM 71.1 °F - 60.1 °F 68% 30.08 in 10.0 mi Calm Calm - N/A   Clear
9:56 PM 66.0 °F - 60.1 °F 81% 30.09 in 10.0 mi Calm Calm - N/A   Clear
10:56 PM 64.0 °F - 59.0 °F 84% 30.08 in 10.0 mi Calm Calm - N/A   Clear
11:56 PM 62.1 °F - 57.9 °F 86% 30.08 in 10.0 mi Calm Calm - N/A   Clear